Temp
15 17 17 20 20 20 19 19 19 20 20 19 19 18 19 20 20 20 21 21 21 19 16 13 12 13 13 15 15 15 15 14 13 12 11 11 11 10 10 9 8 8 9 11
15 16 18 19 19 16 17 17 18 19 20 19 18 17 18 19 20 21 20 20 19 17 14 11 12 14 15 14 15 15 15 13 11 12 10 9 9 9 8 7 8 7 8 9
16 18 18 17 17 17 18 17 18 17 18 17 17 17 20 20 21 21 20 17 14 13 11 9 8 11 13 14 14 12 12 12 11 10 8 8 9 7 7 6 6 6 6 6
16 17 15 15 15 17 16 18 16 16 15 16 17 15 18 20 21 20 18 15 12 10 8 7 6 9 11 11 11 11 12 11 11 10 9 8 6 6 6 6 5 5 6 6
17 14 14 15 16 16 17 14 15 15 15 15 17 16 19 21 19 18 15 12 9 8 7 6 5 7 8 9 10 10 11 12 12 10 8 7 6 6 5 5 5 5 5 6
15 13 14 16 16 15 14 14 15 15 15 14 18 17 18 19 18 17 13 10 9 7 6 5 5 5 6 7 7 7 8 8 9 9 9 7 6 6 5 4 4 4 6 6
17 15 14 13 14 14 13 14 14 15 15 15 17 15 17 18 18 16 12 9 7 6 6 5 4 3 2 2 4 7 8 9 8 7 7 7 7 6 5 5 4 3 3 3
15 15 14 14 14 15 15 15 14 12 14 15 15 15 17 18 13 11 9 8 6 5 4 4 3 3 2 3 5 6 6 7 7 7 6 6 6 6 5 5 5 5 3 3
14 15 16 13 14 13 15 13 15 12 11 11 14 16 18 17 12 10 9 7 6 5 4 3 3 2 1 1 1 2 4 4 5 5 5 5 5 5 4 5 4 4 3 3
12 11 14 12 12 12 13 12 12 12 9 10 13 14 16 16 14 10 8 6 5 4 4 3 2 1 1 1 1 2 2 3 3 3 4 3 4 4 4 4 4 4 4 3
11 9 12 12 12 12 13 11 12 12 11 10 10 13 12 11 11 8 6 4 3 3 2 2 1 0 0 1 1 2 2 2 2 2 2 2 2 2 2 3 3 3 3 3
11 10 8 10 13 13 12 11 11 10 9 10 10 9 11 8 6 5 4 3 2 1 1 1 1 -0 0 1 2 1 1 1 0 0 0 1 1 1 1 1 2 2 3 2
9 7 6 8 12 8 8 10 10 9 8 7 8 10 8 5 4 2 2 1 1 0 1 1 0 -0 -1 -1 -1 -1 -0 0 0 -0 -0 -0 -0 -0 0 0 1 1 1 2
6 5 6 7 9 10 8 7 8 6 6 7 8 7 7 6 4 2 2 2 1 1 0 -0 -0 -1 -1 -1 -1 -1 -1 -1 -1 -1 -1 -1 -1 -1 -2 -2 -1 -1 -0 -0
7 5 6 7 8 8 6 6 7 7 7 6 7 7 8 9 8 4 3 2 1 1 0 0 -1 -1 -1 -2 -2 -1 -1 -1 -1 -1 -1 -2 -2 -2 -1 -1 -2 -2 -1 -1
6 4 5 3 5 5 5 6 7 7 7 6 7 7 10 6 3 3 3 2 2 2 1 -0 -1 -2 -2 -3 -3 -4 -3 -3 -3 -2 -2 -2 -2 -2 -2 -2 -2 -2 -2 -2
4 3 3 2 4 4 2 4 5 6 7 7 6 5 0 2 2 2 1 1 1 1 0 -0 -1 -1 -2 -3 -4 -4 -5 -4 -4 -4 -4 -3 -3 -3 -3 -3 -2 -2 -2 -3
2 2 2 1 1 0 4 7 6 5 5 4 2 -1 0 1 1 1 1 0 0 0 -0 -0 -1 -2 -3 -3 -4 -5 -5 -5 -5 -5 -5 -5 -5 -4 -4 -4 -4 -4 -4 -3
3 2 1 -0 1 3 4 4 5 4 3 4 2 1 1 0 0 1 2 1 -0 -1 -1 -2 -2 -2 -4 -5 -5 -6 -5 -6 -7 -8 -8 -8 -8 -8 -6 -5 -5 -5 -5 -5
2 2 1 1 -0 -0 3 4 1 2 1 -0 -1 -1 -1 -1 -1 1 1 -1 -1 -1 -2 -2 -3 -3 -4 -5 -6 -6 -7 -8 -8 -9 -10 -10 -10 -10 -10 -9 -8 -7 -6 -6
-0 -1 -1 -0 -0 1 3 -0 0 -1 1 -1 -1 -1 -1 -1 -0 -1 -1 -2 -2 -2 -3 -3 -4 -4 -5 -6 -7 -7 -8 -9 -10 -11 -11 -12 -12 -13 -13 -13 -13 -13 -12 -12
0 0 -1 -2 -2 -2 1 -1 -0 2 0 -0 -1 -0 -0 -0 -1 -1 -2 -2 -2 -3 -4 -5 -5 -5 -6 -7 -7 -7 -7 -10 -11 -12 -13 -14 -15 -16 -16 -17 -17 -17 -17 -17
-2 0 -0 -0 0 2 0 -0 0 0 -0 -0 -0 -0 -1 -1 -2 -2 -2 -3 -4 -5 -5 -6 -6 -6 -6 -7 -8 -9 -9 -11 -11 -12 -13 -15 -16 -17 -19 -19 -19 -19 -19 -19
1 1 -0 -1 0 1 0 0 0 0 -0 -0 -1 -1 -2 -2 -2 -3 -4 -5 -6 -6 -7 -7 -7 -8 -7 -8 -9 -11 -12 -14 -15 -16 -16 -18 -19 -20 -21 -22 -22 -21 -21 -20
1 1 -0 -1 0 -0 -0 -0 -1 -1 -1 -1 -2 -2 -2 -4 -4 -5 -6 -7 -7 -8 -8 -8 -8 -8 -8 -10 -11 -13 -15 -16 -17 -19 -20 -21 -22 -23 -23 -23 -23 -23 -22 -22
0 0 -0 -1 1 0 0 0 -0 -1 -1 -1 -2 -3 -3 -4 -5 -6 -7 -8 -8 -9 -9 -9 -10 -10 -11 -12 -13 -14 -16 -18 -19 -21 -22 -23 -23 -23 -23 -23 -23 -23 -22 -21
Height
1517 1516 1513 1503 1501 1501 1500 1500 1496 1492 1491 1491 1488 1486 1483 1480 1472 1466 1465 1464 1465 1467 1469 1469 1465 1463 1459 1457 1456 1456 1456 1456 1457 1460 1461 1463 1465 1467 1468 1471 1474 1477 1477 1479
1516 1510 1503 1502 1503 1507 1503 1501 1497 1489 1487 1489 1486 1484 1477 1472 1465 1463 1460 1463 1465 1468 1469 1468 1463 1461 1459 1458 1455 1453 1451 1453 1454 1457 1459 1461 1462 1464 1466 1467 1468 1469 1471 1472
1505 1498 1499 1503 1502 1500 1498 1500 1495 1494 1491 1489 1484 1478 1464 1464 1459 1459 1461 1465 1471 1474 1472 1470 1466 1461 1461 1458 1456 1454 1452 1451 1451 1453 1456 1458 1459 1458 1461 1462 1463 1463 1465 1465
1499 1497 1500 1502 1502 1500 1500 1490 1494 1496 1498 1492 1487 1481 1468 1456 1452 1458 1464 1470 1470 1472 1475 1471 1468 1464 1461 1461 1459 1455 1452 1451 1450 1452 1453 1454 1458 1458 1459 1460 1460 1458 1459 1461
1491 1498 1502 1499 1495 1496 1493 1495 1493 1493 1492 1487 1484 1484 1457 1448 1452 1458 1470 1475 1476 1474 1473 1472 1470 1467 1467 1465 1462 1457 1455 1452 1451 1452 1451 1453 1454 1455 1456 1456 1454 1455 1455 1455
1495 1500 1501 1495 1492 1495 1497 1494 1491 1489 1489 1484 1464 1470 1459 1454 1457 1461 1470 1473 1476 1477 1473 1470 1472 1474 1472 1467 1466 1461 1459 1453 1452 1451 1450 1451 1454 1453 1452 1454 1451 1450 1449 1449
1485 1491 1492 1496 1498 1497 1497 1496 1489 1487 1484 1474 1463 1472 1460 1455 1457 1460 1469 1474 1474 1474 1476 1477 1476 1476 1475 1471 1467 1457 1455 1452 1454 1456 1454 1452 1451 1451 1451 1450 1449 1448 1447 1445
1492 1488 1488 1492 1492 1491 1489 1490 1495 1496 1483 1473 1471 1464 1453 1450 1461 1464 1467 1470 1474 1477 1479 1477 1475 1475 1471 1467 1461 1460 1454 1454 1455 1457 1458 1456 1453 1450 1450 1449 1449 1445 1445 1441
1491 1485 1482 1491 1490 1494 1486 1493 1485 1492 1488 1489 1469 1454 1445 1448 1460 1467 1472 1475 1478 1479 1480 1479 1473 1467 1468 1466 1463 1460 1455 1454 1455 1456 1456 1456 1455 1452 1450 1447 1446 1444 1442 1439
1493 1495 1485 1491 1492 1491 1490 1492 1492 1489 1501 1488 1464 1454 1445 1444 1449 1464 1470 1475 1478 1475 1470 1472 1473 1473 1469 1466 1463 1458 1456 1457 1457 1455 1454 1454 1453 1452 1451 1448 1443 1441 1438 1436
1499 1505 1486 1488 1484 1485 1487 1489 1488 1485 1483 1481 1478 1459 1456 1455 1459 1467 1471 1473 1472 1474 1475 1473 1474 1475 1472 1465 1459 1456 1458 1459 1458 1455 1453 1453 1451 1450 1448 1446 1443 1441 1436 1435
1498 1498 1497 1485 1479 1481 1483 1485 1485 1487 1481 1472 1471 1465 1456 1466 1472 1474 1476 1475 1475 1475 1475 1473 1474 1470 1468 1467 1461 1459 1459 1459 1459 1457 1454 1451 1449 1447 1444 1443 1439 1435 1434 1431
1498 1501 1502 1487 1475 1485 1486 1484 1483 1483 1485 1479 1472 1457 1466 1471 1472 1472 1473 1476 1476 1474 1474 1472 1470 1469 1466 1468 1465 1462 1458 1457 1457 1456 1452 1448 1445 1443 1440 1437 1434 1432 1428 1427
1502 1502 1498 1495 1482 1480 1488 1487 1486 1490 1485 1473 1464 1463 1461 1466 1467 1468 1467 1469 1471 1470 1473 1471 1468 1468 1468 1467 1465 1461 1458 1456 1453 1451 1448 1445 1440 1437 1435 1434 1432 1430 1427 1424
1500 1498 1493 1488 1485 1485 1486 1486 1480 1477 1473 1474 1459 1460 1455 1457 1460 1466 1464 1466 1470 1471 1471 1468 1468 1470 1468 1465 1464 1461 1457 1454 1451 1449 1445 1441 1437 1434 1432 1429 1427 1425 1424 1421
1497 1497 1493 1491 1486 1487 1483 1473 1468 1470 1467 1463 1460 1453 1454 1456 1462 1464 1465 1466 1467 1466 1465 1465 1467 1466 1465 1464 1460 1457 1452 1450 1449 1446 1443 1439 1435 1430 1426 1422 1419 1416 1414 1413
1498 1495 1494 1487 1485 1486 1481 1466 1466 1460 1457 1454 1450 1453 1460 1461 1463 1463 1465 1465 1465 1465 1464 1464 1464 1463 1460 1458 1454 1450 1447 1445 1443 1441 1438 1434 1430 1425 1422 1419 1416 1409 1404 1400
1494 1495 1495 1487 1491 1488 1454 1454 1456 1455 1454 1456 1460 1463 1462 1462 1463 1463 1462 1462 1462 1462 1461 1460 1459 1457 1454 1450 1447 1443 1440 1437 1434 1430 1427 1424 1421 1418 1415 1411 1406 1403 1400 1396
1485 1486 1489 1488 1478 1458 1456 1458 1454 1452 1450 1452 1454 1460 1461 1462 1461 1459 1458 1458 1458 1458 1457 1455 1453 1450 1447 1444 1440 1436 1432 1428 1425 1421 1417 1414 1410 1406 1402 1399 1397 1393 1388 1384
1481 1480 1483 1478 1475 1467 1454 1454 1458 1457 1451 1453 1455 1459 1459 1459 1458 1452 1454 1454 1453 1453 1451 1449 1446 1443 1440 1437 1432 1428 1424 1420 1416 1412 1407 1403 1400 1395 1389 1384 1380 1376 1373 1368
1479 1480 1476 1470 1466 1456 1451 1455 1458 1461 1449 1450 1454 1455 1455 1455 1453 1450 1450 1449 1449 1447 1445 1442 1439 1436 1433 1430 1425 1420 1416 1412 1407 1401 1395 1391 1387 1382 1376 1370 1364 1359 1354 1349
1470 1469 1467 1473 1473 1466 1452 1455 1457 1449 1449 1451 1450 1449 1448 1447 1446 1445 1445 1444 1442 1441 1439 1436 1432 1429 1426 1423 1417 1411 1406 1401 1394 1388 1381 1376 1371 1366 1361 1355 1348 1344 1340 1334
1471 1460 1458 1459 1451 1446 1448 1448 1447 1447 1446 1443 1443 1442 1441 1440 1439 1439 1439 1438 1436 1434 1431 1429 1426 1422 1419 1415 1410 1403 1397 1390 1382 1374 1367 1360 1354 1349 1345 1340 1334 1329 1326 1320
1454 1451 1452 1452 1449 1441 1443 1441 1441 1439 1439 1437 1436 1435 1435 1434 1433 1431 1431 1431 1429 1427 1424 1421 1417 1414 1409 1406 1401 1394 1386 1379 1370 1361 1353 1346 1340 1334 1329 1325 1321 1316 1312 1306
1443 1443 1441 1441 1438 1435 1436 1434 1433 1432 1431 1430 1429 1428 1427 1427 1425 1425 1424 1424 1423 1420 1418 1415 1411 1406 1401 1396 1390 1383 1376 1368 1359 1350 1342 1336 1330 1324 1318 1314 1309 1304 1300 1296
1432 1430 1434 1427 1426 1427 1424 1425 1425 1425 1424 1423 1422 1421 1420 1420 1419 1418 1418 1417 1415 1413 1411 1408 1404 1398 1392 1385 1379 1374 1367 1359 1350 1340 1334 1328 1322 1316 1310 1303 1295 1294 1289 1284
Wind_Speed
9 8 10 15 16 20 20 21 23 21 20 22 21 21 20 26 32 30 27 21 12 4 11 14 16 16 11 8 5 6 10 12 17 19 23 27 31 34 34 35 33 36 40 41
4 12 15 15 13 13 18 21 21 20 17 13 17 21 25 22 22 17 15 13 3 12 13 15 18 21 22 20 16 11 7 5 10 13 16 16 14 19 21 26 31 33 38 41
17 15 5 9 12 18 18 19 22 22 18 17 13 15 12 10 24 13 8 12 18 15 15 17 19 22 23 24 24 23 19 11 2 6 9 12 16 19 15 19 25 31 35 39
11 8 6 11 15 14 15 12 7 12 9 10 7 11 11 17 12 9 17 18 16 16 15 16 19 23 24 24 23 25 23 20 16 8 3 6 8 10 9 12 18 24 28 33
0 5 4 8 9 4 8 2 7 8 11 16 14 9 5 15 8 13 13 13 14 15 15 19 21 22 23 23 23 22 21 21 20 16 10 7 6 8 9 11 17 20 21 22
17 2 4 10 3 7 6 7 14 13 8 8 6 6 4 4 5 12 11 12 13 13 14 16 15 16 18 20 23 25 25 26 23 18 15 12 9 7 7 11 14 16 18 20
5 7 6 4 7 5 6 8 7 8 8 13 5 6 9 6 3 5 10 9 11 12 12 13 13 12 14 18 20 24 23 25 25 25 23 18 14 11 10 10 11 13 13 18
13 17 7 10 6 12 10 9 7 10 14 16 8 12 10 5 14 14 12 12 10 9 9 9 11 12 14 18 24 24 25 23 22 21 22 22 22 19 15 13 13 12 13 15
10 9 5 4 4 2 5 7 8 6 11 8 14 23 18 12 12 10 11 10 8 7 7 10 14 16 15 17 18 19 21 22 21 21 20 20 21 21 21 19 16 15 14 15
1 10 3 1 2 8 6 5 7 4 5 15 12 18 13 7 12 10 8 8 7 10 13 13 13 13 14 15 16 19 20 20 19 19 19 20 20 20 20 20 20 20 19 17
4 3 9 6 7 12 10 10 11 12 11 13 16 13 8 9 8 7 7 7 9 9 9 9 8 10 12 15 18 19 19 21 21 21 19 18 19 20 20 20 20 20 20 20
10 5 10 23 21 19 14 15 16 12 9 11 13 12 10 8 7 6 4 7 6 5 6 7 7 9 13 16 17 17 19 21 22 22 20 20 20 21 21 22 23 23 24 22
3 2 5 8 10 2 4 6 12 14 12 17 14 12 7 4 3 2 5 8 5 5 4 5 7 9 11 13 14 15 19 21 24 26 26 25 25 24 24 25 26 26 26 26
2 5 11 13 17 19 19 18 15 11 9 17 16 14 15 14 9 8 13 8 7 5 6 5 7 10 10 13 14 17 19 21 25 27 28 29 31 31 30 28 27 27 28 29
4 10 15 18 21 19 18 19 24 24 23 23 24 23 24 23 17 9 3 2 7 9 8 6 7 10 12 13 16 19 19 21 24 27 29 31 32 32 33 34 33 30 29 29
7 10 11 16 19 20 21 24 24 22 22 24 25 28 23 11 3 3 3 6 9 12 12 9 9 10 12 13 14 17 22 22 23 25 28 30 33 35 38 41 42 43 39 34
11 8 8 18 16 18 16 24 23 26 26 25 22 12 7 5 4 5 7 9 12 13 13 13 12 13 13 14 15 17 19 24 27 28 29 30 34 37 38 40 42 45 48 49
12 13 9 15 13 20 14 14 12 16 14 10 5 1 2 2 8 12 13 14 14 16 16 18 19 20 19 19 19 22 29 31 35 37 39 40 39 39 41 43 44 44 45 47
19 16 10 11 15 19 25 21 20 17 17 11 7 5 2 10 15 19 13 9 14 15 16 19 23 23 21 22 22 27 36 38 36 38 39 38 40 43 45 46 46 46 48 49
7 14 12 10 14 17 15 5 2 2 13 7 8 3 8 10 9 12 17 17 17 17 20 22 22 24 29 26 34 38 40 41 40 37 40 43 43 45 51 55 57 58 58 58
3 5 14 14 16 12 8 4 3 7 9 14 6 8 14 10 16 22 21 19 18 20 22 23 25 28 31 32 37 43 45 43 41 45 47 48 47 47 49 50 56 57 61 62
8 7 7 5 6 12 4 5 5 6 3 7 13 20 20 21 19 18 19 20 19 20 19 21 27 32 36 37 41 45 48 50 52 55 56 54 51 49 48 46 51 48 48 49
7 11 7 7 8 6 11 12 18 21 23 27 31 30 21 21 18 17 19 19 18 19 24 27 32 36 38 39 42 48 52 53 56 57 58 58 57 55 50 45 45 44 42 43
15 25 12 14 16 25 30 33 31 29 28 31 28 25 21 20 18 16 16 18 21 22 26 29 33 36 39 42 46 48 49 49 50 53 55 55 53 51 47 41 38 39 39 41
14 6 13 14 21 29 29 32 33 31 28 28 25 21 22 18 19 17 18 20 21 24 26 30 33 38 43 45 47 45 44 46 48 49 50 47 44 40 41 40 38 38 39 39
24 21 13 15 26 23 26 29 27 20 26 27 25 23 23 21 20 19 19 20 22 25 27 30 34 39 43 43 43 42 41 41 44 46 45 43 43 42 41 41 42 37 36 37
Wind_Direction
194 225 226 252 249 258 277 284 285 285 296 296 298 297 298 290 282 279 283 288 294 354 69 42 38 35 34 21 347 301 271 257 257 246 242 242 243 244 244 241 240 241 244 241
192 240 254 271 281 290 278 281 282 288 296 311 291 295 292 290 278 285 295 310 56 101 55 40 41 46 46 40 35 20 357 274 259 248 247 239 241 244 247 245 242 240 243 245
254 270 315 269 259 264 272 283 291 296 309 292 297 284 292 256 290 295 341 100 80 62 52 40 37 43 44 45 43 39 34 27 310 253 250 255 243 244 243 250 246 245 245 246
264 281 248 253 254 268 274 283 296 295 302 300 15 298 291 276 263 70 104 85 79 62 44 45 42 42 44 41 44 45 44 44 39 20 305 248 263 271 268 268 258 255 256 251
144 170 185 225 237 221 264 304 284 278 269 287 277 261 273 279 269 111 94 80 66 66 59 44 37 39 40 41 42 46 47 49 46 42 41 13 328 296 263 250 264 274 272 270
268 91 256 253 263 226 345 278 265 260 265 265 296 269 290 20 0 123 116 94 76 64 60 58 49 38 41 47 44 44 41 40 35 35 34 27 360 330 299 281 287 279 286 280
279 226 192 237 260 206 228 277 295 274 255 267 231 278 263 322 168 139 127 94 74 68 59 54 53 47 36 36 39 42 39 38 34 30 28 22 12 355 336 314 306 292 281 285
288 293 186 159 239 305 282 263 265 287 284 294 288 269 248 353 119 128 131 121 98 72 57 56 52 45 36 27 27 27 31 31 26 23 22 24 23 19 2 338 317 301 285 283
304 258 348 263 273 281 285 243 286 288 277 282 264 269 273 232 154 136 120 108 92 81 50 29 25 27 23 23 23 22 21 19 16 14 10 10 11 11 14 9 353 329 310 296
83 290 264 76 278 217 235 346 265 221 254 261 262 273 271 260 171 145 116 90 60 38 34 22 14 10 7 10 13 12 11 11 13 14 10 7 4 0 358 356 357 357 349 326
26 220 278 304 236 266 258 254 242 266 249 260 268 267 22 42 89 112 78 48 29 23 17 18 10 4 4 4 6 9 7 6 6 7 9 6 2 358 355 350 347 345 347 343
282 285 264 276 286 286 295 269 275 256 251 248 263 259 3 85 86 80 42 354 346 354 360 5 357 4 4 359 2 3 359 357 357 359 360 359 357 355 352 348 346 341 336 337
58 223 281 283 279 89 212 279 279 264 264 261 273 284 89 95 127 174 265 274 258 309 354 8 9 6 2 353 351 351 349 345 343 343 344 343 344 343 343 342 340 338 335 330
67 243 247 258 276 303 297 296 292 279 272 280 264 274 270 249 233 223 222 243 262 273 293 317 342 347 342 340 338 338 340 336 335 335 334 334 334 335 336 336 333 330 328 326
245 261 263 269 274 282 287 281 275 270 266 261 277 287 288 296 303 323 305 249 259 258 266 294 305 306 313 322 327 327 328 325 322 323 324 324 323 322 320 320 323 323 321 319
266 270 290 281 277 276 276 271 267 271 272 270 272 273 279 340 25 266 279 275 292 299 278 284 289 297 295 287 297 311 323 319 316 314 312 311 309 310 312 315 315 315 315 314
265 268 264 268 281 287 270 257 263 263 263 269 275 307 358 4 332 315 303 296 300 304 292 273 288 298 306 306 300 301 302 308 311 311 309 307 304 301 298 299 301 305 308 309
254 258 257 270 282 259 263 275 289 285 285 296 308 64 105 348 318 310 301 294 299 306 299 290 289 295 300 305 306 307 312 310 312 313 312 311 307 302 298 297 296 295 294 296
234 250 264 255 252 274 291 287 285 293 291 310 209 182 2 325 312 295 292 318 309 297 300 301 297 294 296 303 309 307 312 312 312 309 308 306 305 303 302 299 296 293 293 291
244 236 237 247 259 266 284 342 349 309 276 129 121 176 303 302 286 289 310 311 297 290 296 302 303 291 296 304 307 310 311 312 310 306 303 303 301 298 300 300 298 296 294 291
214 227 231 243 255 267 271 92 131 247 295 154 184 293 292 277 275 288 293 290 289 292 300 303 295 299 302 305 306 307 310 310 309 305 303 302 299 296 293 293 294 294 293 292
233 246 228 231 259 270 94 123 224 320 255 235 274 299 293 290 282 284 283 287 292 299 299 294 297 299 303 306 307 308 309 311 308 307 305 302 299 295 292 289 289 288 286 285
240 239 256 233 245 247 200 232 264 276 276 281 294 297 291 283 274 281 286 288 292 289 292 296 298 300 304 308 311 310 310 310 307 305 303 302 301 300 297 292 290 288 285 282
252 251 247 254 249 257 267 273 273 277 278 281 283 286 284 270 275 276 276 278 283 291 297 299 303 307 308 311 311 312 312 311 309 306 305 305 306 306 306 301 293 288 285 283
246 260 240 252 257 265 265 266 269 272 277 280 283 279 273 265 266 274 276 283 291 294 298 302 306 307 309 312 314 314 316 314 311 309 309 310 311 307 303 299 294 291 287 283
242 241 246 252 260 263 267 275 280 282 283 280 274 265 272 264 269 274 280 288 293 297 302 305 308 310 314 316 316 318 319 317 314 312 311 310 309 307 303 299 298 298 292 289